User: anonymous   Login
Location: Hepcat Sky Observatory
(29.9800°N, 95.6500°W)
Time: 05:11:00
(UTC-06:00)
Language:

ALOS - Orbit

View from above orbital plane
View from above orbital plane
View from above satellite
View from above satellite

Ground track
Ground track

The orbit data is extracted from the following two-line orbital elements,

1 28931U 06002A   17350.07243208  .00000144  00000-0  37147-4 0  9998
2 28931  97.8302   8.1998 0002506  88.6702 271.4796 14.62436002634044
Epoch (UTC): 16 December 2017 01:44:18
Eccentricity: 0.0002506
inclination: 97.8302°
perigee height: 683 km
apogee height: 687 km
right ascension of ascending node: 8.1998°
argument of perigee: 88.6702°
revolutions per day: 14.62436002
mean anomaly at epoch: 271.4796°
orbit number at epoch: 63404

The dashed part of the orbit path shows where the satellite is in the earth's shadow,  

DLR